| time (UTC) | temp C | wind direction | speed KPH | gust KPH | rain 1hr cm | rain 24hr cm | rain mn cm | humidity % | barometer mb |
| 20260903220025 | 6 | 0.0 | 0.0 | 0.00 | 0.00 | 0.00 | 98 | 1003.1 | |
| 20260903215020 | 6 | 0.0 | 0.0 | 0.00 | 0.00 | 0.00 | 98 | 1003.2 | |
| 20260903214015 | 7 | 0.0 | 0.0 | 0.00 | 0.00 | 0.00 | 98 | 1003.1 | |
| 20260903213032 | 7 | 0.0 | 0.0 | 0.00 | 0.00 | 0.00 | 98 | 1002.9 | |
| 20260903212026 | 7 | 0.0 | 0.0 | 0.00 | 0.00 | 0.00 | 98 | 1002.9 | |
| 20260903211022 | 7 | 0.0 | 0.0 | 0.00 | 0.00 | 0.00 | 98 | 1003.0 | |
| 20260903210016 | 7 | 0.0 | 0.0 | 0.00 | 0.00 | 0.00 | 97 | 1002.9 | |
| 20260903205033 | 7 | 0.0 | 0.0 | 0.00 | 0.00 | 0.00 | 97 | 1003.1 | |
| 20260903204027 | 7 | 0.0 | 0.0 | 0.00 | 0.00 | 0.00 | 95 | 1003.0 | |
| 20260903203023 | 7 | 0.0 | 0.0 | 0.00 | 0.00 | 0.00 | 94 | 1003.0 | |
| 20260903202019 | 8 | 0.0 | 0.0 | 0.00 | 0.00 | 0.00 | 93 | 1003.1 | |
| 20260903201034 | 8 | 0.0 | 0.0 | 0.00 | 0.00 | 0.00 | 91 | 1003.2 | |
| 20260903200029 | 9 | 0.0 | 0.0 | 0.00 | 0.00 | 0.00 | 91 | 1003.2 | |
| 20260903195025 | 9 | 0.0 | 0.0 | 0.00 | 0.00 | 0.00 | 90 | 1003.4 | |
| 20260903194020 | 10 | 0.0 | 0.0 | 0.00 | 0.00 | 0.00 | 88 | 1003.5 | |
| 20260903193015 | 10 | 0.0 | 0.0 | 0.00 | 0.00 | 0.00 | 87 | 1003.5 | |
| 20260903192030 | 10 | 0.0 | 0.0 | 0.00 | 0.00 | 0.00 | 85 | 1003.3 | |
| 20260903191030 | 10 | 0.0 | 0.0 | 0.00 | 0.00 | 0.00 | 85 | 1003.3 | |
| 20260903190021 | 11 | 0.0 | 0.0 | 0.00 | 0.00 | 0.00 | 84 | 1003.3 | |
| 20260903185016 | 12 | 0.0 | 0.0 | 0.00 | 0.00 | 0.00 | 80 | 1003.3 | |
| 20260903184032 | 11 | 0.0 | 0.0 | 0.00 | 0.00 | 0.00 | 82 | 1003.2 | |
| 20260903183027 | 11 | 0.0 | 0.0 | 0.00 | 0.00 | 0.00 | 82 | 1003.2 | |
| 20260903182043 | 11 | 0.0 | 0.0 | 0.00 | 0.00 | 0.00 | 78 | 1003.4 | |
| 20260903181018 | 12 | 0.0 | 0.0 | 0.00 | 0.00 | 0.00 | 74 | 1003.4 | |
| 20260903180034 | 14 | 0.0 | 0.0 | 0.00 | 0.00 | 0.00 | 67 | 1003.5 | |
| 20260903175030 | 15 | 239 | 0.0 | 3.2 | 0.00 | 0.00 | 0.00 | 63 | 1003.6 |
| 20260903174024 | 14 | 0.0 | 0.0 | 0.00 | 0.00 | 0.00 | 70 | 1003.7 | |
| 20260903173020 | 15 | 0.0 | 0.0 | 0.00 | 0.00 | 0.00 | 71 | 1003.3 | |
| 20260903172034 | 16 | 0.0 | 0.0 | 0.00 | 0.00 | 0.00 | 65 | 1003.3 | |
| 20260903171030 | 16 | 186 | 0.0 | 1.6 | 0.00 | 0.00 | 0.00 | 61 | 1003.2 |
| 20260903170045 | 17 | 188 | 0.0 | 1.6 | 0.00 | 0.00 | 0.00 | 58 | 1003.2 |
| 20260903165021 | 17 | 214 | 1.6 | 3.2 | 0.00 | 0.00 | 0.00 | 57 | 1003.2 |
| 20260903164036 | 17 | 211 | 3.2 | 4.8 | 0.00 | 0.00 | 0.00 | 55 | 1003.3 |
| 20260903163031 | 18 | 242 | 4.8 | 11.3 | 0.00 | 0.00 | 0.00 | 53 | 1003.2 |
| 20260903162026 | 18 | 245 | 6.4 | 9.7 | 0.00 | 0.00 | 0.00 | 52 | 1003.3 |
| 20260903161022 | 17 | 239 | 6.4 | 9.7 | 0.00 | 0.00 | 0.00 | 52 | 1003.3 |
| 20260903160018 | 18 | 244 | 4.8 | 12.9 | 0.00 | 0.00 | 0.00 | 51 | 1003.4 |
| 20260903155033 | 17 | 245 | 4.8 | 11.3 | 0.00 | 0.00 | 0.00 | 52 | 1003.4 |
| 20260903154028 | 18 | 259 | 8.0 | 16.1 | 0.00 | 0.00 | 0.00 | 49 | 1003.3 |
| 20260903153023 | 18 | 258 | 6.4 | 12.9 | 0.00 | 0.00 | 0.00 | 49 | 1003.3 |
| 20260903152019 | 18 | 247 | 6.4 | 12.9 | 0.00 | 0.00 | 0.00 | 51 | 1003.4 |
| 20260903151055 | 17 | 224 | 4.8 | 6.4 | 0.00 | 0.00 | 0.00 | 52 | 1003.6 |
| 20260903150030 | 18 | 263 | 6.4 | 11.3 | 0.00 | 0.00 | 0.00 | 50 | 1003.4 |
| 20260903145024 | 18 | 248 | 4.8 | 9.7 | 0.00 | 0.00 | 0.00 | 50 | 1003.5 |
| 20260903144019 | 18 | 244 | 8.0 | 14.5 | 0.00 | 0.00 | 0.00 | 50 | 1003.5 |
| 20260903143034 | 18 | 252 | 9.7 | 17.7 | 0.00 | 0.00 | 0.00 | 49 | 1003.6 |
| 20260903142050 | 18 | 242 | 9.7 | 14.5 | 0.00 | 0.00 | 0.00 | 50 | 1003.6 |
| 20260903141025 | 18 | 254 | 11.3 | 17.7 | 0.00 | 0.00 | 0.00 | 49 | 1003.4 |
| 20260903140020 | 18 | 240 | 9.7 | 17.7 | 0.00 | 0.00 | 0.00 | 50 | 1003.6 |
| 20260903135036 | 19 | 229 | 4.8 | 12.9 | 0.00 | 0.00 | 0.00 | 50 | 1003.6 |
| 20260903134212 | 18 | 244 | 9.7 | 16.1 | 0.00 | 0.00 | 0.00 | 49 | 1003.6 |
| 20260903133026 | 18 | 246 | 9.7 | 17.7 | 0.00 | 0.00 | 0.00 | 50 | 1003.6 |
| 20260903132042 | 17 | 278 | 9.7 | 16.1 | 0.00 | 0.00 | 0.00 | 50 | 1003.7 |
| 20260903131037 | 17 | 260 | 3.2 | 6.4 | 0.00 | 0.00 | 0.00 | 53 | 1003.6 |
| 20260903130033 | 17 | 250 | 8.0 | 17.7 | 0.00 | 0.00 | 0.00 | 52 | 1003.6 |
| 20260903125028 | 17 | 243 | 6.4 | 16.1 | 0.00 | 0.00 | 0.00 | 53 | 1003.5 |
| 20260903124043 | 18 | 235 | 9.7 | 17.7 | 0.00 | 0.00 | 0.00 | 51 | 1003.5 |
| 20260903123018 | 18 | 240 | 6.4 | 14.5 | 0.00 | 0.00 | 0.00 | 52 | 1003.5 |
| 20260903122034 | 17 | 237 | 6.4 | 14.5 | 0.00 | 0.00 | 0.00 | 54 | 1003.6 |
| 20260903121029 | 17 | 238 | 6.4 | 12.9 | 0.00 | 0.00 | 0.00 | 53 | 1003.6 |
| 20260903120024 | 18 | 258 | 8.0 | 12.9 | 0.00 | 0.00 | 0.00 | 52 | 1003.4 |
| 20260903115020 | 18 | 245 | 9.7 | 17.7 | 0.00 | 0.00 | 0.00 | 53 | 1003.5 |
| 20260903114035 | 18 | 256 | 9.7 | 14.5 | 0.00 | 0.00 | 0.00 | 52 | 1003.6 |
| 20260903113031 | 17 | 274 | 12.9 | 22.5 | 0.00 | 0.00 | 0.00 | 51 | 1003.5 |
| 20260903112025 | 17 | 271 | 11.3 | 22.5 | 0.00 | 0.00 | 0.00 | 51 | 1003.6 |
| 20260903111020 | 17 | 248 | 8.0 | 14.5 | 0.00 | 0.00 | 0.00 | 53 | 1003.6 |
| 20260903110036 | 17 | 250 | 11.3 | 16.1 | 0.00 | 0.00 | 0.00 | 52 | 1003.7 |
| 20260903105031 | 17 | 272 | 9.7 | 16.1 | 0.00 | 0.00 | 0.00 | 52 | 1003.6 |
| 20260903104026 | 17 | 245 | 11.3 | 17.7 | 0.00 | 0.00 | 0.00 | 54 | 1003.6 |
| 20260903103101 | 17 | 237 | 9.7 | 16.1 | 0.00 | 0.00 | 0.00 | 54 | 1003.7 |
| 20260903102016 | 17 | 242 | 6.4 | 14.5 | 0.00 | 0.00 | 0.00 | 55 | 1003.5 |
| 20260903101031 | 17 | 226 | 6.4 | 12.9 | 0.00 | 0.00 | 0.00 | 56 | 1003.5 |
| 20260903100026 | 17 | 244 | 6.4 | 14.5 | 0.00 | 0.00 | 0.00 | 57 | 1003.6 |
| 20260903095021 | 17 | 237 | 4.8 | 9.7 | 0.00 | 0.00 | 0.00 | 57 | 1003.7 |
| 20260903094016 | 17 | 272 | 6.4 | 11.3 | 0.00 | 0.00 | 0.00 | 58 | 1003.5 |
| 20260903093034 | 16 | 268 | 6.4 | 12.9 | 0.00 | 0.00 | 0.00 | 60 | 1003.8 |
| 20260903092029 | 16 | 239 | 4.8 | 9.7 | 0.00 | 0.00 | 0.00 | 60 | 1003.8 |
| 20260903091024 | 16 | 240 | 6.4 | 11.3 | 0.00 | 0.00 | 0.00 | 61 | 1003.7 |
| 20260903090019 | 15 | 233 | 3.2 | 6.4 | 0.00 | 0.00 | 0.00 | 62 | 1003.7 |
| 20260903085034 | 16 | 271 | 6.4 | 11.3 | 0.00 | 0.00 | 0.00 | 62 | 1003.6 |
| 20260903084030 | 15 | 242 | 6.4 | 12.9 | 0.00 | 0.00 | 0.00 | 63 | 1003.7 |
| 20260903083025 | 15 | 252 | 6.4 | 11.3 | 0.00 | 0.00 | 0.00 | 64 | 1003.7 |
| 20260903082020 | 15 | 240 | 6.4 | 12.9 | 0.00 | 0.00 | 0.00 | 66 | 1003.8 |
| 20260903081056 | 15 | 238 | 8.0 | 14.5 | 0.00 | 0.00 | 0.00 | 67 | 1003.9 |
| 20260903080050 | 14 | 233 | 4.8 | 14.5 | 0.00 | 0.00 | 0.00 | 69 | 1003.7 |
| 20260903075026 | 14 | 269 | 6.4 | 12.9 | 0.00 | 0.00 | 0.00 | 70 | 1003.8 |
| 20260903074021 | 14 | 236 | 4.8 | 9.7 | 0.00 | 0.00 | 0.00 | 73 | 1003.9 |
| 20260903073018 | 13 | 263 | 6.4 | 9.7 | 0.00 | 0.00 | 0.00 | 75 | 1003.9 |
| 20260903072033 | 13 | 237 | 6.4 | 12.9 | 0.00 | 0.00 | 0.00 | 77 | 1003.9 |
| 20260903071028 | 12 | 237 | 8.0 | 12.9 | 0.00 | 0.00 | 0.00 | 79 | 1003.9 |
| 20260903070023 | 11 | 246 | 8.0 | 14.5 | 0.00 | 0.00 | 0.00 | 81 | 1003.8 |
| 20260903065039 | 11 | 230 | 6.4 | 12.9 | 0.00 | 0.00 | 0.00 | 83 | 1003.9 |
| 20260903064034 | 11 | 239 | 8.0 | 14.5 | 0.00 | 0.00 | 0.00 | 83 | 1003.9 |
| 20260903063110 | 11 | 227 | 4.8 | 9.7 | 0.00 | 0.00 | 0.00 | 85 | 1004.0 |
| 20260903062026 | 11 | 237 | 8.0 | 14.5 | 0.00 | 0.00 | 0.00 | 84 | 1004.0 |
| 20260903061020 | 11 | 238 | 6.4 | 16.1 | 0.00 | 0.00 | 0.00 | 84 | 1004.1 |
| 20260903060034 | 11 | 242 | 8.0 | 16.1 | 0.00 | 0.00 | 0.00 | 85 | 1004.0 |
| 20260903055030 | 11 | 226 | 6.4 | 12.9 | 0.00 | 0.00 | 0.00 | 86 | 1004.0 |
| 20260903054024 | 11 | 243 | 8.0 | 12.9 | 0.00 | 0.00 | 0.00 | 86 | 1004.0 |
| 20260903053019 | 11 | 221 | 4.8 | 9.7 | 0.00 | 0.00 | 0.00 | 88 | 1004.0 |
| 20260903052055 | 11 | 196 | 3.2 | 9.7 | 0.00 | 0.00 | 0.00 | 87 | 1004.0 |
| 20260903051030 | 11 | 190 | 3.2 | 6.4 | 0.00 | 0.00 | 0.00 | 88 | 1004.1 |
| 20260903050026 | 10 | 203 | 3.2 | 9.7 | 0.00 | 0.00 | 0.00 | 89 | 1004.1 |
| 20260903045020 | 10 | 213 | 1.6 | 4.8 | 0.00 | 0.00 | 0.00 | 91 | 1004.2 |
| 20260903044015 | 9 | 171 | 0.0 | 3.2 | 0.00 | 0.00 | 0.00 | 92 | 1004.0 |
| 20260903043030 | 9 | 201 | 1.6 | 4.8 | 0.00 | 0.00 | 0.00 | 92 | 1003.8 |
| 20260903042025 | 9 | 199 | 1.6 | 6.4 | 0.00 | 0.00 | 0.00 | 92 | 1004.0 |
| 20260903041022 | 9 | 204 | 1.6 | 4.8 | 0.00 | 0.00 | 0.00 | 92 | 1004.0 |
| 20260903040016 | 10 | 223 | 3.2 | 11.3 | 0.00 | 0.00 | 0.00 | 91 | 1003.9 |
| 20260903035031 | 10 | 231 | 3.2 | 11.3 | 0.00 | 0.00 | 0.00 | 91 | 1004.0 |
| 20260903034027 | 10 | 223 | 3.2 | 9.7 | 0.00 | 0.00 | 0.00 | 91 | 1004.1 |
| 20260903033022 | 10 | 221 | 3.2 | 4.8 | 0.00 | 0.00 | 0.00 | 92 | 1004.0 |
| 20260903032019 | 9 | 216 | 3.2 | 9.7 | 0.00 | 0.00 | 0.00 | 93 | 1004.0 |
| 20260903031033 | 8 | 218 | 3.2 | 9.7 | 0.00 | 0.00 | 0.00 | 96 | 1003.8 |
| 20260903030053 | 9 | 201 | 0.0 | 3.2 | 0.00 | 0.00 | 0.00 | 94 | 1003.9 |
| 20260903025024 | 9 | 238 | 1.6 | 3.2 | 0.00 | 0.00 | 0.00 | 94 | 1004.1 |
| 20260903024019 | 9 | 0.0 | 0.0 | 0.00 | 0.00 | 0.00 | 92 | 1004.2 | |
| 20260903023055 | 11 | 215 | 1.6 | 6.4 | 0.00 | 0.00 | 0.00 | 89 | 1004.2 |
| 20260903022051 | 10 | 218 | 3.2 | 9.7 | 0.00 | 0.00 | 0.00 | 89 | 1004.3 |
| 20260903021026 | 10 | 232 | 4.8 | 9.7 | 0.00 | 0.00 | 0.00 | 91 | 1004.4 |
| 20260903020021 | 9 | 197 | 1.6 | 4.8 | 0.00 | 0.00 | 0.00 | 94 | 1004.3 |
| 20260903015037 | 9 | 194 | 0.0 | 1.6 | 0.00 | 0.00 | 0.00 | 94 | 1004.4 |
| 20260903014032 | 10 | 190 | 0.0 | 3.2 | 0.00 | 0.00 | 0.00 | 93 | 1004.5 |
| 20260903013026 | 10 | 213 | 0.0 | 4.8 | 0.00 | 0.00 | 0.00 | 91 | 1004.5 |
| 20260903012022 | 10 | 199 | 1.6 | 3.2 | 0.00 | 0.00 | 0.00 | 90 | 1004.5 |
| 20260903011017 | 10 | 220 | 3.2 | 6.4 | 0.00 | 0.00 | 0.00 | 90 | 1004.6 |
| 20260903010033 | 11 | 214 | 3.2 | 9.7 | 0.00 | 0.00 | 0.00 | 89 | 1004.6 |
| 20260903005027 | 11 | 224 | 3.2 | 11.3 | 0.00 | 0.00 | 0.00 | 87 | 1004.5 |
| 20260903004023 | 11 | 209 | 1.6 | 4.8 | 0.00 | 0.00 | 0.00 | 87 | 1004.6 |
| 20260903003018 | 11 | 223 | 3.2 | 9.7 | 0.00 | 0.00 | 0.00 | 87 | 1004.6 |
| 20260903002034 | 10 | 221 | 4.8 | 6.4 | 0.00 | 0.00 | 0.00 | 88 | 1004.8 |
| 20260903001029 | 12 | 209 | 1.6 | 4.8 | 0.00 | 0.00 | 0.00 | 84 | 1004.8 |
| 20260903000025 | 12 | 241 | 4.8 | 6.4 | 0.00 | 0.00 | 0.00 | 84 | 1004.7 |
| 20260902235019 | 11 | 243 | 3.2 | 9.7 | 0.00 | 0.00 | 0.00 | 87 | 1004.8 |
| 20260902234035 | 10 | 200 | 0.0 | 1.6 | 0.00 | 0.00 | 0.00 | 90 | 1004.7 |
| 20260902233030 | 9 | 163 | 0.0 | 1.6 | 0.00 | 0.00 | 0.00 | 91 | 1004.7 |
| 20260902232025 | 8 | 0.0 | 0.0 | 0.00 | 0.00 | 0.00 | 91 | 1004.7 | |
| 20260902231020 | 9 | 161 | 0.0 | 1.6 | 0.00 | 0.00 | 0.00 | 89 | 1004.7 |
| 20260902230016 | 9 | 142 | 0.0 | 3.2 | 0.00 | 0.00 | 0.00 | 89 | 1004.7 |
| 20260902225031 | 9 | 157 | 0.0 | 1.6 | 0.00 | 0.00 | 0.00 | 89 | 1004.7 |
| 20260902224026 | 9 | 167 | 0.0 | 1.6 | 0.00 | 0.00 | 0.00 | 88 | 1004.8 |
| 20260902223042 | 9 | 0.0 | 0.0 | 0.00 | 0.00 | 0.00 | 89 | 1004.9 | |
| 20260902222016 | 9 | 0.0 | 0.0 | 0.00 | 0.00 | 0.00 | 89 | 1004.7 | |
| 20260902221032 | 9 | 158 | 0.0 | 1.6 | 0.00 | 0.00 | 0.00 | 88 | 1004.8 |